TimeCST,TemperatureF,Dew PointF,Humidity,Sea Level PressureIn,VisibilityMPH,Wind Direction,Wind SpeedMPH,Gust SpeedMPH,PrecipitationIn,Events,Conditions,WindDirDegrees,DateUTC
12:54 AM,28.9,23.0,78,30.40,9.0,Calm,Calm,-,N/A,,Overcast,0,2013-01-04 06:54:00
1:54 AM,30.0,23.0,75,30.41,10.0,Calm,Calm,-,N/A,,Overcast,0,2013-01-04 07:54:00
2:54 AM,28.0,21.0,75,30.41,10.0,Calm,Calm,-,N/A,,Clear,0,2013-01-04 08:54:00
3:54 AM,24.1,19.9,84,30.41,9.0,Calm,Calm,-,N/A,,Clear,0,2013-01-04 09:54:00
4:54 AM,23.0,18.0,81,30.41,8.0,Calm,Calm,-,N/A,,Clear,0,2013-01-04 10:54:00
5:54 AM,24.1,19.0,81,30.42,7.0,Calm,Calm,-,N/A,,Clear,0,2013-01-04 11:54:00
6:54 AM,21.0,16.0,81,30.44,6.0,Calm,Calm,-,N/A,,Haze,0,2013-01-04 12:54:00
7:54 AM,25.0,21.0,85,30.44,6.0,West,3.5,-,N/A,,Clear,280,2013-01-04 13:54:00
8:54 AM,27.0,21.0,78,30.46,8.0,Calm,Calm,-,N/A,,Clear,0,2013-01-04 14:54:00
9:54 AM,32.0,21.9,66,30.48,8.0,West,6.9,-,N/A,,Clear,260,2013-01-04 15:54:00
10:54 AM,33.1,21.0,61,30.49,10.0,West,9.2,-,N/A,,Overcast,280,2013-01-04 16:54:00
11:54 AM,34.0,19.9,56,30.46,10.0,WNW,9.2,-,N/A,,Scattered Clouds,300,2013-01-04 17:54:00
12:54 PM,35.1,21.0,57,30.43,10.0,Calm,Calm,-,N/A,,Clear,0,2013-01-04 18:54:00
1:54 PM,36.0,21.9,57,30.42,10.0,West,5.8,-,N/A,,Clear,260,2013-01-04 19:54:00
2:54 PM,35.1,21.9,59,30.43,10.0,SSW,5.8,-,N/A,,Clear,200,2013-01-04 20:54:00
3:54 PM,35.1,21.9,59,30.43,10.0,SSW,4.6,-,N/A,,Clear,200,2013-01-04 21:54:00
4:54 PM,33.1,21.9,64,30.42,10.0,Calm,Calm,-,N/A,,Clear,0,2013-01-04 22:54:00
5:54 PM,30.0,21.0,69,30.42,10.0,Calm,Calm,-,N/A,,Clear,0,2013-01-04 23:54:00
6:54 PM,28.9,21.0,72,30.42,10.0,Calm,Calm,-,N/A,,Clear,0,2013-01-05 00:54:00
7:54 PM,23.0,19.0,85,30.39,9.0,ENE,5.8,-,N/A,,Clear,70,2013-01-05 01:54:00
8:54 PM,25.0,19.0,78,30.40,9.0,Calm,Calm,-,N/A,,Clear,0,2013-01-05 02:54:00
9:54 PM,24.1,19.0,81,30.41,8.0,Calm,Calm,-,N/A,,Clear,0,2013-01-05 03:54:00
10:54 PM,23.0,19.0,85,30.41,6.0,Calm,Calm,-,N/A,,Clear,0,2013-01-05 04:54:00
11:54 PM,21.9,18.0,85,30.40,5.0,Calm,Calm,-,N/A,,Clear,0,2013-01-05 05:54:00